Retour au catalogue

FENGYUN 1C DEB

ActifSSO
NORAD 31739·DEBRIS·🇨🇳 China

Lancé May 10, 1999 depuis Taiyuan Satellite Launch Center

Loading…

Prochains Passages (prochaines 24 heures)

TLE

FraisSource: Space-Track

Époque: Sep 12, 2026, 09:31 UTC

1 31739U 99025CEN 26255.39666864  .00000076  00000-0  52742-4 0  9993
2 31739  98.7101 311.7090 0127364  11.3401 349.0598 14.19328782993683

Suivez FENGYUN 1C DEB en temps réel avec AllMySat

Download on the App Store